STARLINK-1257 (45402 NORAD) Tracking and Keplerian Element Data

This shows tracking and keplerian element data for the satellite.

Feedback or suggestion? Click here.




ElementValue
Catalog45402
NameSTARLINK-1257
Epoch Orbit1748
Epoch Day187.50002315
Epoch Year2020
RAAN83.7769
Inclination52.9998
Eccentricity0.0001435
Argument of Perigee76.321
Mean Anonmoly99.7359
Mean Motion15.18665225
Decay Rate-0.01052981
L11 45402U 20019AU 20187.50002315 -.01052981 00000-0 -54790-1 0 9995
L22 45402 52.9998 83.7769 0001435 76.3210 99.7359 15.18665225 17484

Live tracking and technical data element details for STARLINK-1257 (NORAD 45402). STARLINK-1257 can be tracked NOW for your location showing map with azimuth and elevation plus other details from your city location.

Track the satellite on the map from your city or location and see movement details for azimuth, elevation, latitude, longitude, range, height, and movement on the map or in text.







IsCatalogInMostPopularTable: catalog: 45402, numindb: 21
Update: records affected: 1



GetName: 45402 STARLINK-1257

Hit Count: updated at: Mon, 06 Jul 2020 04:39:32 GMT